[[{"header":{"parameterUnit":"m.s-1","parameterCategory":1,"la1":30.2991,"la2":30.254,"lo1":-89.0895,"lo2":-89.0444,"dy":0.0017,"dx":0.0017,"nx":28,"ny":28,"refTime":"2023-09-02T21:00:00:Z","depth":0,"parameterNumber":2,"parameterNumberName":"U-component_of_WINDS"},"data":[0,0,0,0,0,0,0,0,0,0,0,0,0,0,0,0,0,0,0,0,0,0,0,0,0,0,0,0,0,0,0,0,0,0,0,0,0,0,0,0,0,0,0,0,0,0,0,0,0,0,0,0,0,0,0,0,0,0,-2.8873,-2.8872,0,-2.8798,-2.8798,-2.8797,-2.8744,-2.8744,-2.8743,-2.8743,-2.8661,-2.8659,-2.8657,0,0,0,0,0,0,0,0,0,0,0,0,0,-2.8966,-2.8964,-2.8873,-2.8872,-2.8871,-2.8799,-2.8797,-2.8796,-2.8744,-2.8744,-2.8743,-2.8743,-2.8661,-2.8659,-2.8657,0,0,0,0,0,0,0,0,0,0,0,0,0,-2.8912,-2.8964,-2.8873,-2.8837,-2.8833,-2.8799,-2.8797,-2.8796,-2.8744,-2.8744,-2.8743,-2.8743,-2.8662,-2.866,-2.8657,-2.8652,0,0,-2.8648,-2.8647,0,0,0,0,0,0,0,0,-2.8915,-2.8908,-2.8843,-2.8839,-2.8835,-2.878,-2.88,-2.8748,-2.8745,-2.8778,-2.8743,-2.8742,-2.8701,-2.8695,-2.8682,-2.8648,-2.8644,-2.8648,-2.8647,-2.8645,-2.8645,0,0,0,0,0,0,0,-2.8919,-2.8911,-2.8843,-2.8842,-2.8837,-2.8822,-2.8814,-2.879,-2.8743,-2.8775,-2.8771,-2.8763,-2.8698,-2.8685,-2.8679,-2.8643,-2.8648,-2.8646,-2.8644,-2.8643,-2.86,-2.86,0,0,0,0,0,0,-2.8929,-2.8915,-2.8846,-2.8841,-2.8874,-2.8821,-2.8812,-2.8798,-2.8743,-2.8735,-2.8764,-2.8761,-2.869,-2.8683,-2.8676,-2.8666,-2.8645,-2.8643,-2.8641,-2.86,-2.86,-2.8601,0,0,0,0,0,0,-2.8931,-2.8923,-2.8849,-2.8877,-2.8866,-2.882,-2.8805,-2.8797,-2.8783,-2.8735,-2.8726,-2.8759,-2.8689,-2.868,-2.8658,-2.8662,-2.8642,-2.8639,-2.8599,-2.86,-2.86,-2.8645,0,0,0,0,0,0,-2.8934,-2.8924,-2.8923,-2.8877,-2.8865,-2.8834,-2.8805,-2.8796,-2.8779,-2.8775,-2.8728,-2.8719,-2.8688,-2.8663,-2.8656,-2.8658,-2.8637,-2.8598,-2.8599,-2.86,-2.8643,-2.8647,-2.8651,0,0,0,0,0,-2.8937,-2.8937,-2.8923,-2.8915,-2.8863,-2.8834,-2.8827,-2.8792,-2.878,-2.8777,-2.8746,-2.8721,-2.8664,-2.8661,-2.8653,-2.8654,-2.8598,-2.8599,-2.86,-2.8641,-2.8646,-2.8651,0,0,0,0,0,0,-2.8983,-2.8931,-2.8914,-2.89,-2.8872,-2.8825,-2.8821,-2.8799,-2.8772,-2.8769,-2.8725,-2.8715,-2.8697,-2.8674,-2.8672,-2.8646,-2.8627,-2.8627,-2.8662,-2.8666,-2.867,-2.8675,-2.8635,0,0,0,0,0,-2.8991,-2.8974,-2.8929,-2.8921,-2.8908,-2.8867,-2.8853,-2.8829,-2.8798,-2.8785,-2.8752,-2.8721,-2.8696,-2.868,-2.8654,-2.864,-2.8628,-2.8637,-2.8641,-2.8644,-2.8644,-2.8633,-2.8636,-2.8604,-2.8604,-2.8604,0,0,-2.9008,-2.8978,-2.8969,-2.8929,-2.8904,-2.8886,-2.8857,-2.8839,-2.8824,-2.8781,-2.8759,-2.8734,-2.8696,-2.8678,-2.8669,-2.8658,-2.865,-2.8646,-2.8649,-2.8646,-2.8635,-2.8638,-2.8641,-2.8605,-2.8605,-2.8605,0,0,-2.9029,-2.9005,-2.8995,-2.8972,-2.8936,-2.8909,-2.8907,-2.8864,-2.8846,-2.8824,-2.8791,-2.8772,-2.873,-2.8704,-2.8686,-2.8699,-2.8673,-2.8691,-2.8711,-2.8701,-2.8704,-2.8706,-2.8709,-2.871,-2.8691,-2.8692,-2.8692,0,-2.9054,-2.9026,-2.8992,-2.8976,-2.8959,-2.8922,-2.891,-2.8889,-2.8846,-2.8834,-2.8823,-2.877,-2.8742,-2.8717,-2.872,-2.8707,-2.8701,-2.8695,-2.8707,-2.8708,-2.871,-2.8712,-2.8713,-2.8694,-2.8694,-2.8693,-2.8693,0,-2.9058,-2.9039,-2.9035,-2.8997,-2.8979,-2.8965,-2.8928,-2.8914,-2.8892,-2.8866,-2.8842,-2.8808,-2.8774,-2.8767,-2.8744,-2.8738,-2.8733,-2.8715,-2.8695,-2.8716,-2.8717,-2.8717,-2.8697,-2.8696,-2.8696,-2.8695,0,0,-2.9103,-2.9047,-2.9046,-2.9028,-2.8986,-2.897,-2.8955,-2.8924,-2.8912,-2.8884,-2.8868,-2.8834,-2.8818,-2.8797,-2.8771,-2.8763,-2.8773,-2.8746,-2.8744,-2.8751,-2.8763,-2.8775,-2.8777,-2.8758,-2.8758,-2.8758,-2.8765,0,-2.9116,-2.9087,-2.9057,-2.9038,-2.902,-2.8985,-2.8971,-2.8943,-2.8919,-2.8898,-2.887,-2.8846,-2.8828,-2.8815,-2.8805,-2.8774,-2.8775,-2.8774,-2.874,-2.874,-2.8749,-2.8778,-2.879,-2.8799,-2.8766,-2.8766,-2.8766,0,-2.9127,-2.9102,-2.9082,-2.9043,-2.9034,-2.9022,-2.8991,-2.8973,-2.894,-2.8922,-2.89,-2.8873,-2.8853,-2.8838,-2.8809,-2.8808,-2.8793,-2.8776,-2.8776,-2.8769,-2.8753,-2.877,-2.8801,-2.8802,-2.8767,-2.8767,-2.8767,0,-2.916,-2.9122,-2.9105,-2.909,-2.9044,-2.9036,-2.9016,-2.8983,-2.8967,-2.8939,-2.8928,-2.8898,-2.8881,-2.8858,-2.8823,-2.8816,-2.8797,-2.8779,-2.878,-2.8781,-2.8776,-2.8776,-2.8803,-2.877,-2.877,-2.877,-2.877,0,-2.9176,-2.9165,-2.9119,-2.9108,-2.9094,-2.9059,-2.9045,-2.9022,-2.8993,-2.8976,-2.8945,-2.8929,-2.8885,-2.8864,-2.8836,-2.8815,-2.8808,-2.8792,-2.8785,-2.8794,-2.8796,-2.8782,-2.8779,-2.877,-2.877,-2.877,-2.877,0,-2.9209,-2.9179,-2.9157,-2.9116,-2.9105,-2.9097,-2.906,-2.9048,-2.9023,-2.9001,-2.8994,-2.8953,-2.8926,-2.8891,-2.8852,-2.8834,-2.8815,-2.8805,-2.8827,-2.8822,-2.8825,-2.8824,-2.8841,-2.8841,-2.8811,-2.8811,-2.8811,0,-2.9221,-2.9212,-2.917,-2.9157,-2.9139,-2.9119,-2.9102,-2.9068,-2.9051,-2.9014,-2.9005,-2.8977,-2.8952,-2.891,-2.8876,-2.8846,-2.8833,-2.8841,-2.8828,-2.8838,-2.8831,-2.8831,-2.8829,-2.8844,-2.8844,-2.8845,-2.8845,0,-2.9244,-2.923,-2.9208,-2.9181,-2.9163,-2.914,-2.9115,-2.9106,-2.9065,-2.9048,-2.9022,-2.9003,-2.8965,-2.8936,-2.8902,-2.8879,-2.8854,-2.885,-2.8848,-2.8857,-2.8869,-2.8861,-2.8834,-2.8849,-2.8849,-2.8848,-2.8848,-2.8848,-2.9265,-2.9255,-2.9225,-2.9202,-2.918,-2.9158,-2.9144,-2.9118,-2.9096,-2.9063,-2.9044,-2.9017,-2.8984,-2.8937,-2.8915,-2.8893,-2.8883,-2.8881,-2.888,-2.888,-2.8882,-2.8875,-2.8887,-2.8886,-2.8886,-2.8886,-2.8886,0,-2.9285,-2.9265,-2.9244,-2.9211,-2.9193,-2.9175,-2.9146,-2.9132,-2.911,-2.9082,-2.9059,-2.9028,-2.9,-2.8965,-2.8934,-2.8923,-2.8911,-2.8916,-2.8915,-2.891,-2.8893,-2.8897,-2.8926,-2.8926,-2.8926,-2.8926,-2.8926,-2.8926,-2.9294,-2.9276,-2.9258,-2.9228,-2.9207,-2.9183,-2.9168,-2.9146,-2.9124,-2.9092,-2.9069,-2.9047,-2.9016,-2.8983,-2.8956,-2.8946,-2.8935,-2.8943,-2.893,-2.8915,-2.8911,-2.8907,-2.8911,-2.8942,-2.8942,-2.8948,-2.8948,-2.8948]},{"header":{"parameterUnit":"m.s-1","parameterCategory":1,"la1":30.2991,"la2":30.254,"lo1":-89.0895,"lo2":-89.0444,"dy":0.0017,"dx":0.0017,"nx":28,"ny":28,"refTime":"2023-09-02T21:00:00:Z","depth":0,"parameterNumber":3,"parameterNumberName":"V-component_of_WINDS"},"data":[0,0,0,0,0,0,0,0,0,0,0,0,0,0,0,0,0,0,0,0,0,0,0,0,0,0,0,0,0,0,0,0,0,0,0,0,0,0,0,0,0,0,0,0,0,0,0,0,0,0,0,0,0,0,0,0,0,0,1.6107,1.6106,0,1.6085,1.6085,1.6085,1.6065,1.6065,1.6065,1.6065,1.6041,1.604,1.604,0,0,0,0,0,0,0,0,0,0,0,0,0,1.6129,1.6129,1.6107,1.6106,1.6106,1.6085,1.6085,1.6084,1.6065,1.6065,1.6065,1.6065,1.6041,1.604,1.604,0,0,0,0,0,0,0,0,0,0,0,0,0,1.6115,1.6129,1.6107,1.6094,1.6093,1.6085,1.6085,1.6084,1.6065,1.6065,1.6065,1.6065,1.6041,1.604,1.604,1.6042,0,0,1.6038,1.6038,0,0,0,0,0,0,0,0,1.6116,1.6114,1.6096,1.6095,1.6093,1.6078,1.6084,1.607,1.6066,1.6076,1.6065,1.6064,1.6053,1.6051,1.6048,1.6041,1.604,1.6038,1.6037,1.6037,1.6037,0,0,0,0,0,0,0,1.6117,1.6115,1.6098,1.6096,1.6094,1.6089,1.6086,1.6081,1.6066,1.6075,1.6073,1.6071,1.6052,1.6049,1.6047,1.604,1.6038,1.6037,1.6037,1.6037,1.6033,1.6034,0,0,0,0,0,0,1.612,1.6116,1.6099,1.6097,1.6104,1.6089,1.6086,1.6083,1.6067,1.6064,1.6072,1.607,1.605,1.6048,1.6046,1.6048,1.6037,1.6036,1.6036,1.6033,1.6033,1.6034,0,0,0,0,0,0,1.612,1.6118,1.61,1.6106,1.6103,1.6089,1.6085,1.6083,1.6079,1.6064,1.6061,1.6071,1.605,1.6047,1.6044,1.6047,1.6036,1.6036,1.6033,1.6033,1.6034,1.6051,0,0,0,0,0,0,1.6121,1.6119,1.612,1.6106,1.6103,1.6098,1.6086,1.6083,1.6078,1.6077,1.6063,1.606,1.6049,1.6045,1.6043,1.6046,1.6035,1.6032,1.6033,1.6033,1.605,1.6052,1.6054,0,0,0,0,0,1.6122,1.6126,1.612,1.6118,1.6104,1.6098,1.6096,1.6084,1.6079,1.608,1.607,1.606,1.6047,1.6044,1.6042,1.6045,1.6032,1.6033,1.6033,1.605,1.6052,1.6054,0,0,0,0,0,0,1.6139,1.6123,1.6117,1.6117,1.6109,1.6095,1.6095,1.6087,1.608,1.6079,1.6064,1.6061,1.6059,1.6051,1.6049,1.6046,1.6038,1.6038,1.6051,1.6053,1.6055,1.6057,1.6035,0,0,0,0,0,1.6143,1.614,1.6126,1.6127,1.6123,1.611,1.6107,1.6099,1.6089,1.6086,1.6076,1.6067,1.606,1.6057,1.605,1.6049,1.6046,1.605,1.6052,1.6054,1.6054,1.6052,1.6054,1.6036,1.6036,1.6036,0,0,1.6151,1.6142,1.6141,1.613,1.6123,1.6119,1.6107,1.6104,1.6101,1.6085,1.6081,1.6073,1.6062,1.606,1.6058,1.6054,1.6058,1.6055,1.6056,1.6055,1.6053,1.6055,1.6057,1.6037,1.6036,1.6036,0,0,1.6163,1.6156,1.6156,1.6149,1.6139,1.613,1.613,1.6117,1.6112,1.6107,1.6096,1.6091,1.6081,1.6073,1.6068,1.6078,1.6068,1.6076,1.6085,1.6084,1.6085,1.6086,1.6089,1.609,1.6076,1.6076,1.6076,0,1.6174,1.6168,1.6157,1.6154,1.6149,1.6136,1.6135,1.6129,1.6117,1.6113,1.6109,1.6095,1.6087,1.6083,1.6085,1.6081,1.608,1.6077,1.6086,1.6087,1.6088,1.6091,1.6092,1.6077,1.6077,1.6077,1.6077,0,1.6182,1.6178,1.6179,1.6168,1.6164,1.6162,1.6149,1.6146,1.6139,1.613,1.6126,1.6115,1.6106,1.6104,1.6097,1.6099,1.6096,1.6089,1.608,1.6091,1.6093,1.6094,1.6078,1.6078,1.6078,1.6078,0,0,1.6204,1.6187,1.6187,1.6182,1.617,1.6166,1.6164,1.6156,1.6153,1.6145,1.6142,1.6133,1.6127,1.6121,1.6112,1.6111,1.6118,1.6104,1.6103,1.6106,1.6119,1.6125,1.6126,1.6113,1.6113,1.6113,1.612,0,1.6213,1.6209,1.6198,1.6196,1.6192,1.618,1.6177,1.6169,1.6161,1.6156,1.6147,1.6141,1.6133,1.6129,1.6128,1.6118,1.6121,1.6117,1.6109,1.6109,1.6111,1.6127,1.6132,1.614,1.6121,1.6121,1.6121,0,1.6224,1.6217,1.6215,1.6203,1.6201,1.6199,1.6191,1.6186,1.6177,1.6171,1.6164,1.6155,1.6151,1.6143,1.6137,1.6135,1.613,1.6125,1.6125,1.6123,1.6115,1.6125,1.6142,1.6143,1.6122,1.6122,1.6122,0,1.6239,1.623,1.6228,1.6224,1.621,1.6208,1.6202,1.6192,1.6188,1.618,1.6177,1.6169,1.6164,1.6158,1.6146,1.6142,1.614,1.6132,1.6135,1.6135,1.6135,1.6135,1.6151,1.6133,1.6133,1.6133,1.6133,0,1.6251,1.625,1.6235,1.6233,1.6231,1.6219,1.6218,1.621,1.6202,1.6198,1.6186,1.6183,1.6168,1.6162,1.6153,1.6148,1.6146,1.6141,1.6138,1.6142,1.6142,1.6138,1.6137,1.6133,1.6133,1.6133,1.6133,0,1.6268,1.6258,1.6254,1.6241,1.6238,1.6237,1.6226,1.6223,1.6215,1.621,1.6208,1.6195,1.6188,1.6175,1.6165,1.6158,1.6156,1.6152,1.6159,1.6157,1.6161,1.616,1.6174,1.6175,1.6158,1.6158,1.6158,0,1.6276,1.6275,1.6262,1.6259,1.6254,1.6249,1.6244,1.6232,1.6228,1.6217,1.6216,1.6208,1.6201,1.619,1.6179,1.617,1.6166,1.6171,1.6164,1.6168,1.6165,1.6165,1.6165,1.6172,1.6173,1.6173,1.6173,0,1.629,1.6285,1.628,1.6273,1.6268,1.6262,1.6254,1.6252,1.6238,1.6234,1.6227,1.6222,1.6211,1.6203,1.6193,1.6186,1.6177,1.6175,1.6175,1.6179,1.6183,1.618,1.6163,1.6175,1.6175,1.6175,1.6175,1.6174,1.6302,1.6301,1.6292,1.6286,1.628,1.6273,1.627,1.6262,1.6256,1.6247,1.624,1.6233,1.6223,1.6209,1.6202,1.6196,1.6192,1.6192,1.6192,1.6192,1.6193,1.6184,1.6194,1.6194,1.6194,1.6194,1.6194,0,1.6316,1.631,1.6305,1.6295,1.6291,1.6284,1.6275,1.6271,1.6266,1.6258,1.6251,1.6243,1.6235,1.6224,1.6215,1.6212,1.6208,1.621,1.621,1.6208,1.6198,1.6199,1.6214,1.6214,1.6214,1.6214,1.6214,1.6214,1.6323,1.632,1.6314,1.6307,1.63,1.6295,1.629,1.6284,1.6277,1.6269,1.6263,1.6256,1.6246,1.6236,1.6228,1.6225,1.6222,1.6226,1.6221,1.6211,1.6209,1.6207,1.6208,1.6225,1.6225,1.6232,1.6232,1.6232]}]]